Year,Month,Day,Hour,Minute,Value (Times are PST for temperature in C)
2012,07,05,07,00,9.70
2012,07,05,07,01,9.70
2012,07,05,07,02,9.80
2012,07,05,07,03,9.80
2012,07,05,07,04,9.90
2012,07,05,07,05,9.90
2012,07,05,07,06,10.00
2012,07,05,07,07,10.10
2012,07,05,07,08,10.20
2012,07,05,07,09,10.30
2012,07,05,07,10,10.50
2012,07,05,07,11,10.50
2012,07,05,07,12,10.60
2012,07,05,07,13,10.70
2012,07,05,07,14,10.80
2012,07,05,07,15,10.90
2012,07,05,07,16,10.90
2012,07,05,07,17,11.00
2012,07,05,07,18,11.00
2012,07,05,07,19,11.10
2012,07,05,07,20,11.20
2012,07,05,07,21,11.20
2012,07,05,07,22,11.30
2012,07,05,07,23,11.30
2012,07,05,07,24,11.40
2012,07,05,07,25,11.50
2012,07,05,07,26,11.60
2012,07,05,07,27,11.60
2012,07,05,07,28,11.70
2012,07,05,07,29,11.80
2012,07,05,07,30,11.80
2012,07,05,07,31,11.80
2012,07,05,07,32,11.80
2012,07,05,07,33,11.90
2012,07,05,07,34,11.90
2012,07,05,07,35,11.90
2012,07,05,07,36,11.90
2012,07,05,07,37,12.00
2012,07,05,07,38,12.00
2012,07,05,07,39,12.00
2012,07,05,07,40,12.10
2012,07,05,07,41,12.10
2012,07,05,07,42,12.20
2012,07,05,07,43,12.20
2012,07,05,07,44,12.30
2012,07,05,07,45,12.30
2012,07,05,07,46,12.40
2012,07,05,07,47,12.40
2012,07,05,07,48,12.50
2012,07,05,07,49,12.50
2012,07,05,07,50,12.60
2012,07,05,07,51,12.70
2012,07,05,07,52,12.70
2012,07,05,07,53,12.80
2012,07,05,07,54,12.90
2012,07,05,07,55,12.90
2012,07,05,07,56,13.00
2012,07,05,07,57,13.10
2012,07,05,07,58,13.10
2012,07,05,07,59,13.20
2012,07,05,08,00,13.20
2012,07,05,08,01,13.30
2012,07,05,08,02,13.30
2012,07,05,08,03,13.40
2012,07,05,08,04,13.40
2012,07,05,08,05,13.40
2012,07,05,08,06,13.50
2012,07,05,08,07,13.60
2012,07,05,08,08,13.60
2012,07,05,08,09,13.70
2012,07,05,08,10,13.70
2012,07,05,08,11,13.80
2012,07,05,08,12,13.80
2012,07,05,08,13,13.90
2012,07,05,08,14,13.90
2012,07,05,08,15,14.00
2012,07,05,08,16,14.10
2012,07,05,08,17,14.20
2012,07,05,08,18,14.20
2012,07,05,08,19,14.30
2012,07,05,08,20,14.40
2012,07,05,08,21,14.40
2012,07,05,08,22,14.50
2012,07,05,08,23,14.60
2012,07,05,08,24,14.60
2012,07,05,08,25,14.70
2012,07,05,08,26,14.70
2012,07,05,08,27,14.80
2012,07,05,08,28,14.80
2012,07,05,08,29,14.90
2012,07,05,08,30,14.90
2012,07,05,08,31,14.90
2012,07,05,08,32,14.90
2012,07,05,08,33,15.00
2012,07,05,08,34,15.00
2012,07,05,08,35,15.10
2012,07,05,08,36,15.10
2012,07,05,08,37,15.20
2012,07,05,08,38,15.20
2012,07,05,08,39,15.20
2012,07,05,08,40,15.20
2012,07,05,08,41,15.30
2012,07,05,08,42,15.30
2012,07,05,08,43,15.30
2012,07,05,08,44,15.30
2012,07,05,08,45,15.30
2012,07,05,08,46,15.30
2012,07,05,08,47,15.40
2012,07,05,08,48,15.40
2012,07,05,08,49,15.50
2012,07,05,08,50,15.50
2012,07,05,08,51,15.60
2012,07,05,08,52,15.60
2012,07,05,08,53,15.70
2012,07,05,08,54,15.80
2012,07,05,08,55,15.80
2012,07,05,08,56,15.80
2012,07,05,08,57,15.90
2012,07,05,08,58,15.90
2012,07,05,08,59,16.00
2012,07,05,09,00,16.10
2012,07,05,09,01,16.10
2012,07,05,09,02,16.20
2012,07,05,09,03,16.20
2012,07,05,09,04,16.30
2012,07,05,09,05,16.30
2012,07,05,09,06,16.40
2012,07,05,09,07,16.50
2012,07,05,09,08,16.60
2012,07,05,09,09,16.70
2012,07,05,09,10,16.80
2012,07,05,09,11,16.90
2012,07,05,09,12,17.00
2012,07,05,09,13,17.10
2012,07,05,09,14,17.20
2012,07,05,09,15,17.30
2012,07,05,09,16,17.30
2012,07,05,09,17,17.40
2012,07,05,09,18,17.50
2012,07,05,09,19,17.50
2012,07,05,09,20,17.50
2012,07,05,09,21,17.50
2012,07,05,09,22,17.60
2012,07,05,09,23,17.60
2012,07,05,09,24,17.60
2012,07,05,09,25,17.70
2012,07,05,09,26,17.70
2012,07,05,09,27,17.80
2012,07,05,09,28,17.90
2012,07,05,09,29,18.00
2012,07,05,09,30,18.00
2012,07,05,09,31,18.10
2012,07,05,09,32,18.10
2012,07,05,09,33,18.10
2012,07,05,09,34,18.20
2012,07,05,09,35,18.30
2012,07,05,09,36,18.30
2012,07,05,09,37,18.40
2012,07,05,09,38,18.40
2012,07,05,09,39,18.40
2012,07,05,09,40,18.40
2012,07,05,09,41,18.40
2012,07,05,09,42,18.50
2012,07,05,09,43,18.50
2012,07,05,09,44,18.60
2012,07,05,09,45,18.70
2012,07,05,09,46,18.80
2012,07,05,09,47,18.80
2012,07,05,09,48,18.90
2012,07,05,09,49,18.90
2012,07,05,09,50,18.90
2012,07,05,09,51,18.90
2012,07,05,09,52,18.90
2012,07,05,09,53,18.80
2012,07,05,09,54,18.80
2012,07,05,09,55,18.80
2012,07,05,09,56,18.80
2012,07,05,09,57,18.70
2012,07,05,09,58,18.70
2012,07,05,09,59,18.70
2012,07,05,10,00,18.70
2012,07,05,10,01,18.70
2012,07,05,10,02,18.80
2012,07,05,10,03,18.80
2012,07,05,10,04,18.70
2012,07,05,10,05,18.70
2012,07,05,10,06,18.60
2012,07,05,10,07,18.60
2012,07,05,10,08,18.60
2012,07,05,10,09,18.60
2012,07,05,10,10,18.60
2012,07,05,10,11,18.70
2012,07,05,10,12,18.70
2012,07,05,10,13,18.80
2012,07,05,10,14,18.80
2012,07,05,10,15,18.90
2012,07,05,10,16,19.00
2012,07,05,10,17,19.00
2012,07,05,10,18,19.10
2012,07,05,10,19,19.20
2012,07,05,10,20,19.20
2012,07,05,10,21,19.20
2012,07,05,10,22,19.20
2012,07,05,10,23,19.20
2012,07,05,10,24,19.20
2012,07,05,10,25,19.10
2012,07,05,10,26,19.10
2012,07,05,10,27,19.00
2012,07,05,10,28,18.80
2012,07,05,10,29,18.80
2012,07,05,10,30,18.70
2012,07,05,10,31,18.70
2012,07,05,10,32,18.70
2012,07,05,10,33,18.80
2012,07,05,10,34,18.80
2012,07,05,10,35,18.80
2012,07,05,10,36,18.90
2012,07,05,10,37,19.00
2012,07,05,10,38,19.10
2012,07,05,10,39,19.30
2012,07,05,10,40,19.40
2012,07,05,10,41,19.50
2012,07,05,10,42,19.70
2012,07,05,10,43,19.80
2012,07,05,10,44,19.90
2012,07,05,10,45,20.00
2012,07,05,10,46,20.00
2012,07,05,10,47,20.00
2012,07,05,10,48,20.00
2012,07,05,10,49,19.90
2012,07,05,10,50,19.90
2012,07,05,10,51,19.80
2012,07,05,10,52,19.80
2012,07,05,10,53,19.80
2012,07,05,10,54,19.80
2012,07,05,10,55,19.90
2012,07,05,10,56,19.90
2012,07,05,10,57,19.90
2012,07,05,10,58,19.90
2012,07,05,10,59,20.00
2012,07,05,11,00,20.00
2012,07,05,11,01,20.10
2012,07,05,11,02,20.20
2012,07,05,11,03,20.30
2012,07,05,11,04,20.30
2012,07,05,11,05,20.40
2012,07,05,11,06,20.40
2012,07,05,11,07,20.40
2012,07,05,11,08,20.50
2012,07,05,11,09,20.50
2012,07,05,11,10,20.40
2012,07,05,11,11,20.40
2012,07,05,11,12,20.40
2012,07,05,11,13,20.30
2012,07,05,11,14,20.20
2012,07,05,11,15,20.10
2012,07,05,11,16,19.90
2012,07,05,11,17,19.70
2012,07,05,11,18,19.60
2012,07,05,11,19,19.50
2012,07,05,11,20,19.40
2012,07,05,11,21,19.50
2012,07,05,11,22,19.50
2012,07,05,11,23,19.60
2012,07,05,11,24,19.70
2012,07,05,11,25,19.80
2012,07,05,11,26,19.80
2012,07,05,11,27,19.80
2012,07,05,11,28,19.90
2012,07,05,11,29,19.90
2012,07,05,11,30,19.90
2012,07,05,11,31,19.90
2012,07,05,11,32,19.90
2012,07,05,11,33,19.90
2012,07,05,11,34,20.00
2012,07,05,11,35,20.00
2012,07,05,11,36,20.10
2012,07,05,11,37,20.20
2012,07,05,11,38,20.20
2012,07,05,11,39,20.20
2012,07,05,11,40,20.20
2012,07,05,11,41,20.30
2012,07,05,11,42,20.30
2012,07,05,11,43,20.30
2012,07,05,11,44,20.30
2012,07,05,11,45,20.20
2012,07,05,11,46,20.10
2012,07,05,11,47,20.20
2012,07,05,11,48,20.30
2012,07,05,11,49,20.40
2012,07,05,11,50,20.60
2012,07,05,11,51,20.80
2012,07,05,11,52,21.00
2012,07,05,11,53,21.20
2012,07,05,11,54,21.30
2012,07,05,11,55,21.30
2012,07,05,11,56,21.30
2012,07,05,11,57,21.30
2012,07,05,11,58,21.30
2012,07,05,11,59,21.20
2012,07,05,12,00,21.10
2012,07,05,12,01,20.90
2012,07,05,12,02,20.80
2012,07,05,12,03,20.70
2012,07,05,12,04,20.60
2012,07,05,12,05,20.60
2012,07,05,12,06,20.50
2012,07,05,12,07,20.40
2012,07,05,12,08,20.30
2012,07,05,12,09,20.40
2012,07,05,12,10,20.40
2012,07,05,12,11,20.40
2012,07,05,12,12,20.40
2012,07,05,12,13,20.40
2012,07,05,12,14,20.50
2012,07,05,12,15,20.60
2012,07,05,12,16,20.70
2012,07,05,12,17,20.80
2012,07,05,12,18,20.80
2012,07,05,12,19,20.90
2012,07,05,12,20,21.00
2012,07,05,12,21,21.00
2012,07,05,12,22,21.00
2012,07,05,12,23,20.90
2012,07,05,12,24,20.90
2012,07,05,12,25,20.90
2012,07,05,12,26,20.90
2012,07,05,12,27,20.90
2012,07,05,12,28,21.00
2012,07,05,12,29,21.10
2012,07,05,12,30,21.30
2012,07,05,12,31,21.40
2012,07,05,12,32,21.60
2012,07,05,12,33,21.70
2012,07,05,12,34,21.80
2012,07,05,12,35,21.90
2012,07,05,12,36,22.00
2012,07,05,12,37,22.20
2012,07,05,12,38,22.20
2012,07,05,12,39,22.20
2012,07,05,12,40,22.20
2012,07,05,12,41,22.00
2012,07,05,12,42,21.90
2012,07,05,12,43,21.70
2012,07,05,12,44,21.40
2012,07,05,12,45,21.20
2012,07,05,12,46,21.10
2012,07,05,12,47,20.90
2012,07,05,12,48,20.70
2012,07,05,12,49,20.60
2012,07,05,12,50,20.50
2012,07,05,12,51,20.50
2012,07,05,12,52,20.40
2012,07,05,12,53,20.40
2012,07,05,12,54,20.50
2012,07,05,12,55,20.50
2012,07,05,12,56,20.60
2012,07,05,12,57,20.70
2012,07,05,12,58,20.70
2012,07,05,12,59,20.70
2012,07,05,13,00,20.70
2012,07,05,13,01,20.80
2012,07,05,13,02,20.80
2012,07,05,13,03,20.90
2012,07,05,13,04,21.00
2012,07,05,13,05,21.10
2012,07,05,13,06,21.20
2012,07,05,13,07,21.30
2012,07,05,13,08,21.40
2012,07,05,13,09,21.50
2012,07,05,13,10,21.50
2012,07,05,13,11,21.60
2012,07,05,13,12,21.60
2012,07,05,13,13,21.70
2012,07,05,13,14,21.80
2012,07,05,13,15,21.80
2012,07,05,13,16,21.80
2012,07,05,13,17,21.90
2012,07,05,13,18,21.90
2012,07,05,13,19,21.90
2012,07,05,13,20,21.90
2012,07,05,13,21,21.80
2012,07,05,13,22,21.80
2012,07,05,13,23,21.70
2012,07,05,13,24,21.50
2012,07,05,13,25,21.30
2012,07,05,13,26,21.10
2012,07,05,13,27,20.90
2012,07,05,13,28,20.70
2012,07,05,13,29,20.50
2012,07,05,13,30,20.30
2012,07,05,13,31,20.20
2012,07,05,13,32,20.10
2012,07,05,13,33,20.00
2012,07,05,13,34,19.80
2012,07,05,13,35,19.80
2012,07,05,13,36,19.80
2012,07,05,13,37,19.90
2012,07,05,13,38,19.90
2012,07,05,13,39,19.90
2012,07,05,13,40,19.90
2012,07,05,13,41,19.90
2012,07,05,13,42,19.90
2012,07,05,13,43,19.90
2012,07,05,13,44,19.90
2012,07,05,13,45,19.90
2012,07,05,13,46,19.90
2012,07,05,13,47,19.80
2012,07,05,13,48,19.70
2012,07,05,13,49,19.60
2012,07,05,13,50,19.40
2012,07,05,13,51,19.30
2012,07,05,13,52,19.10
2012,07,05,13,53,19.00
2012,07,05,13,54,19.00
2012,07,05,13,55,18.90
2012,07,05,13,56,19.00
2012,07,05,13,57,19.00
2012,07,05,13,58,19.00
2012,07,05,13,59,18.90
2012,07,05,14,00,18.90
2012,07,05,14,01,18.80
2012,07,05,14,02,18.70
2012,07,05,14,03,18.60
2012,07,05,14,04,18.60
2012,07,05,14,05,18.50
2012,07,05,14,06,18.40
2012,07,05,14,07,18.40
2012,07,05,14,08,18.40
2012,07,05,14,09,18.40
2012,07,05,14,10,18.40
2012,07,05,14,11,18.40
2012,07,05,14,12,18.40
2012,07,05,14,13,18.40
2012,07,05,14,14,18.40
2012,07,05,14,15,18.50
2012,07,05,14,16,18.40
2012,07,05,14,17,18.40
2012,07,05,14,18,18.40
2012,07,05,14,19,18.40
2012,07,05,14,20,18.30
2012,07,05,14,21,18.30
2012,07,05,14,22,18.30
2012,07,05,14,23,18.30
2012,07,05,14,24,18.20
2012,07,05,14,25,18.20
2012,07,05,14,26,18.20
2012,07,05,14,27,18.30
2012,07,05,14,28,18.30
2012,07,05,14,29,18.20
2012,07,05,14,30,18.20
2012,07,05,14,31,18.20
2012,07,05,14,32,18.20
2012,07,05,14,33,18.20
2012,07,05,14,34,18.20
2012,07,05,14,35,18.20
2012,07,05,14,36,18.20
2012,07,05,14,37,18.20
2012,07,05,14,38,18.30
2012,07,05,14,39,18.30
2012,07,05,14,40,18.40
2012,07,05,14,41,18.40
2012,07,05,14,42,18.40
2012,07,05,14,43,18.40
2012,07,05,14,44,18.40
2012,07,05,14,45,18.40
2012,07,05,14,46,18.40
2012,07,05,14,47,18.40
2012,07,05,14,48,18.40
2012,07,05,14,49,18.40
2012,07,05,14,50,18.30
2012,07,05,14,51,18.30
2012,07,05,14,52,18.30
2012,07,05,14,53,18.30
2012,07,05,14,54,18.30
2012,07,05,14,55,18.30
2012,07,05,14,56,18.30
2012,07,05,14,57,18.20
2012,07,05,14,58,18.20
2012,07,05,14,59,18.20
2012,07,05,15,00,18.20
2012,07,05,15,01,18.20
2012,07,05,15,02,18.30
2012,07,05,15,03,18.30
2012,07,05,15,04,18.30
2012,07,05,15,05,18.30
2012,07,05,15,06,18.30
2012,07,05,15,07,18.40
2012,07,05,15,08,18.40
2012,07,05,15,09,18.40
2012,07,05,15,10,18.50
2012,07,05,15,11,18.60
2012,07,05,15,12,18.60
2012,07,05,15,13,18.70
2012,07,05,15,14,18.70
2012,07,05,15,15,18.70
2012,07,05,15,16,18.80
2012,07,05,15,17,18.80
2012,07,05,15,18,18.80
2012,07,05,15,19,18.90
2012,07,05,15,20,18.90
2012,07,05,15,21,18.90
2012,07,05,15,22,19.00
2012,07,05,15,23,19.00
2012,07,05,15,24,18.90
2012,07,05,15,25,18.90
2012,07,05,15,26,18.90
2012,07,05,15,27,18.80
2012,07,05,15,28,18.80
2012,07,05,15,29,18.80
2012,07,05,15,30,18.80
2012,07,05,15,31,18.80
2012,07,05,15,32,18.80
2012,07,05,15,33,18.80
2012,07,05,15,34,18.70
2012,07,05,15,35,18.70
2012,07,05,15,36,18.70
2012,07,05,15,37,18.70
2012,07,05,15,38,18.70
2012,07,05,15,39,18.70
2012,07,05,15,40,18.80
2012,07,05,15,41,18.80
2012,07,05,15,42,18.80
2012,07,05,15,43,18.90
2012,07,05,15,44,19.00
2012,07,05,15,45,19.00
2012,07,05,15,46,19.00
2012,07,05,15,47,19.10
2012,07,05,15,48,19.10
2012,07,05,15,49,19.00
2012,07,05,15,50,19.00
2012,07,05,15,51,19.00
2012,07,05,15,52,19.00
2012,07,05,15,53,19.00
2012,07,05,15,54,19.00
2012,07,05,15,55,19.00
2012,07,05,15,56,18.90
2012,07,05,15,57,18.80
2012,07,05,15,58,18.80
2012,07,05,15,59,18.80
2012,07,05,16,00,18.80
2012,07,05,16,01,18.80
2012,07,05,16,02,18.80
2012,07,05,16,03,18.90
2012,07,05,16,04,18.90
2012,07,05,16,05,19.00
2012,07,05,16,06,19.00
2012,07,05,16,07,19.10
2012,07,05,16,08,19.10
2012,07,05,16,09,19.10
2012,07,05,16,10,19.10
2012,07,05,16,11,19.10
2012,07,05,16,12,19.10
2012,07,05,16,13,19.20
2012,07,05,16,14,19.20
2012,07,05,16,15,19.30
2012,07,05,16,16,19.30
2012,07,05,16,17,19.40
2012,07,05,16,18,19.50
2012,07,05,16,19,19.70
2012,07,05,16,20,19.80
2012,07,05,16,21,19.90
2012,07,05,16,22,20.10
2012,07,05,16,23,20.30
2012,07,05,16,24,20.40
2012,07,05,16,25,20.40
2012,07,05,16,26,20.50
2012,07,05,16,27,20.50
2012,07,05,16,28,20.50
2012,07,05,16,29,20.50
2012,07,05,16,30,20.50
2012,07,05,16,31,20.60
2012,07,05,16,32,20.60
2012,07,05,16,33,20.60
2012,07,05,16,34,20.60
2012,07,05,16,35,20.60
2012,07,05,16,36,20.60
2012,07,05,16,37,20.60
2012,07,05,16,38,20.70
2012,07,05,16,39,20.80
2012,07,05,16,40,20.90
2012,07,05,16,41,20.90
2012,07,05,16,42,21.00
2012,07,05,16,43,21.00
2012,07,05,16,44,21.10
2012,07,05,16,45,21.10
2012,07,05,16,46,21.10
2012,07,05,16,47,21.10
2012,07,05,16,48,21.10
2012,07,05,16,49,21.10
2012,07,05,16,50,21.10
2012,07,05,16,51,21.00
2012,07,05,16,52,21.00
2012,07,05,16,53,20.90
2012,07,05,16,54,20.80
2012,07,05,16,55,20.70
2012,07,05,16,56,20.70
2012,07,05,16,57,20.60
2012,07,05,16,58,20.60
2012,07,05,16,59,20.50
2012,07,05,17,00,20.50
2012,07,05,17,01,20.40
2012,07,05,17,02,20.40
2012,07,05,17,03,20.40
2012,07,05,17,04,20.40
2012,07,05,17,05,20.50
2012,07,05,17,06,20.50
2012,07,05,17,07,20.50
2012,07,05,17,08,20.50
2012,07,05,17,09,20.40
2012,07,05,17,10,20.40
2012,07,05,17,11,20.40
2012,07,05,17,12,20.40
2012,07,05,17,13,20.50
2012,07,05,17,14,20.60
2012,07,05,17,15,20.60
2012,07,05,17,16,20.60
2012,07,05,17,17,20.60
2012,07,05,17,18,20.50
2012,07,05,17,19,20.50
2012,07,05,17,20,20.40
2012,07,05,17,21,20.40
2012,07,05,17,22,20.40
2012,07,05,17,23,20.30
2012,07,05,17,24,20.30
2012,07,05,17,25,20.20
2012,07,05,17,26,20.20
2012,07,05,17,27,20.20
2012,07,05,17,28,20.20
2012,07,05,17,29,20.20
2012,07,05,17,30,20.10
2012,07,05,17,31,20.10
2012,07,05,17,32,20.00
2012,07,05,17,33,20.00
2012,07,05,17,34,19.90
2012,07,05,17,35,19.90
2012,07,05,17,36,19.90
2012,07,05,17,37,19.90
2012,07,05,17,38,19.90
2012,07,05,17,39,19.90
2012,07,05,17,40,19.90
2012,07,05,17,41,19.90
2012,07,05,17,42,19.90
2012,07,05,17,43,19.90
2012,07,05,17,44,19.90
2012,07,05,17,45,19.80
2012,07,05,17,46,19.80
2012,07,05,17,47,19.80
2012,07,05,17,48,19.80
2012,07,05,17,49,19.80
2012,07,05,17,50,19.80
2012,07,05,17,51,19.80
2012,07,05,17,52,19.80
2012,07,05,17,53,19.70
2012,07,05,17,54,19.70
2012,07,05,17,55,19.70
2012,07,05,17,56,19.70
2012,07,05,17,57,19.60
2012,07,05,17,58,19.60
2012,07,05,17,59,19.50
2012,07,05,18,00,19.50
2012,07,05,18,01,19.40
2012,07,05,18,02,19.40
2012,07,05,18,03,19.30
2012,07,05,18,04,19.30
2012,07,05,18,05,19.30
2012,07,05,18,06,19.20
2012,07,05,18,07,19.20
2012,07,05,18,08,19.20
2012,07,05,18,09,19.20
2012,07,05,18,10,19.20
2012,07,05,18,11,19.20
2012,07,05,18,12,19.20
2012,07,05,18,13,19.20
2012,07,05,18,14,19.20
2012,07,05,18,15,19.20
2012,07,05,18,16,19.20
2012,07,05,18,17,19.20
2012,07,05,18,18,19.20
2012,07,05,18,19,19.20
2012,07,05,18,20,19.20
2012,07,05,18,21,19.20
2012,07,05,18,22,19.20
2012,07,05,18,23,19.20
2012,07,05,18,24,19.20
2012,07,05,18,25,19.20
2012,07,05,18,26,19.10
2012,07,05,18,27,19.10
2012,07,05,18,28,19.10
2012,07,05,18,29,19.10
2012,07,05,18,30,19.10
2012,07,05,18,31,19.10
2012,07,05,18,32,19.10
2012,07,05,18,33,19.10
2012,07,05,18,34,19.10
2012,07,05,18,35,19.10
2012,07,05,18,36,19.10
2012,07,05,18,37,19.10
2012,07,05,18,38,19.10
2012,07,05,18,39,19.20
2012,07,05,18,40,19.20
2012,07,05,18,41,19.20
2012,07,05,18,42,19.20
2012,07,05,18,43,19.20
2012,07,05,18,44,19.20
2012,07,05,18,45,19.20
2012,07,05,18,46,19.20
2012,07,05,18,47,19.20
2012,07,05,18,48,19.20
2012,07,05,18,49,19.30
2012,07,05,18,50,19.30
2012,07,05,18,51,19.30
2012,07,05,18,52,19.30
2012,07,05,18,53,19.30
2012,07,05,18,54,19.30
2012,07,05,18,55,19.40
2012,07,05,18,56,19.40
2012,07,05,18,57,19.40
2012,07,05,18,58,19.40
2012,07,05,18,59,19.50
2012,07,05,19,00,19.50
2012,07,05,19,01,19.50
2012,07,05,19,02,19.50
2012,07,05,19,03,19.50
2012,07,05,19,04,19.60
2012,07,05,19,05,19.60
2012,07,05,19,06,19.60
2012,07,05,19,07,19.60
2012,07,05,19,08,19.60
2012,07,05,19,09,19.60
2012,07,05,19,10,19.60
2012,07,05,19,11,19.60
2012,07,05,19,12,19.60
2012,07,05,19,13,19.70
2012,07,05,19,14,19.70
2012,07,05,19,15,19.70
2012,07,05,19,16,19.70
2012,07,05,19,17,19.70
2012,07,05,19,18,19.70
2012,07,05,19,19,19.70
2012,07,05,19,20,19.80
2012,07,05,19,21,19.80
2012,07,05,19,22,19.80
2012,07,05,19,23,19.80
2012,07,05,19,24,19.80
2012,07,05,19,25,19.80
2012,07,05,19,26,19.80
2012,07,05,19,27,19.80
2012,07,05,19,28,19.80
2012,07,05,19,29,19.80
2012,07,05,19,30,19.80
2012,07,05,19,31,19.80
2012,07,05,19,32,19.80
2012,07,05,19,33,19.80
2012,07,05,19,34,19.80
2012,07,05,19,35,19.80
2012,07,05,19,36,19.80
2012,07,05,19,37,19.80
2012,07,05,19,38,19.80
2012,07,05,19,39,19.80
2012,07,05,19,40,19.80
2012,07,05,19,41,19.80
2012,07,05,19,42,19.80
2012,07,05,19,43,19.80
2012,07,05,19,44,19.80
2012,07,05,19,45,19.80
2012,07,05,19,46,19.80
2012,07,05,19,47,19.80
2012,07,05,19,48,19.80
2012,07,05,19,49,19.80
2012,07,05,19,50,19.80
2012,07,05,19,51,19.80
2012,07,05,19,52,19.80
2012,07,05,19,53,19.80
2012,07,05,19,54,19.80
2012,07,05,19,55,19.80
2012,07,05,19,56,19.80
2012,07,05,19,57,19.80
2012,07,05,19,58,19.80
2012,07,05,19,59,19.80
2012,07,05,20,00,19.80
2012,07,05,20,01,19.70
2012,07,05,20,02,19.70
2012,07,05,20,03,19.70
2012,07,05,20,04,19.70
2012,07,05,20,05,19.70
2012,07,05,20,06,19.70
2012,07,05,20,07,19.60
2012,07,05,20,08,19.60
2012,07,05,20,09,19.60
2012,07,05,20,10,19.60
2012,07,05,20,11,19.60
2012,07,05,20,12,19.50
2012,07,05,20,13,19.40
2012,07,05,20,14,19.40
2012,07,05,20,15,19.40
2012,07,05,20,16,19.30
2012,07,05,20,17,19.30
2012,07,05,20,18,19.30
2012,07,05,20,19,19.20
2012,07,05,20,20,19.20
2012,07,05,20,21,19.20
2012,07,05,20,22,19.20
2012,07,05,20,23,19.20
2012,07,05,20,24,19.20
2012,07,05,20,25,19.10
2012,07,05,20,26,19.10
2012,07,05,20,27,19.00
2012,07,05,20,28,19.00
2012,07,05,20,29,18.90
2012,07,05,20,30,18.90
2012,07,05,20,31,18.80
2012,07,05,20,32,18.80
2012,07,05,20,33,18.80
2012,07,05,20,34,18.70
2012,07,05,20,35,18.70
2012,07,05,20,36,18.70
2012,07,05,20,37,18.60
2012,07,05,20,38,18.60
2012,07,05,20,39,18.60
2012,07,05,20,40,18.50
2012,07,05,20,41,18.40
2012,07,05,20,42,18.40
2012,07,05,20,43,18.30
2012,07,05,20,44,18.30
2012,07,05,20,45,18.30
2012,07,05,20,46,18.20
2012,07,05,20,47,18.20
2012,07,05,20,48,18.20
2012,07,05,20,49,18.20
2012,07,05,20,50,18.10
2012,07,05,20,51,18.10
2012,07,05,20,52,18.10
2012,07,05,20,53,18.00
2012,07,05,20,54,18.00
2012,07,05,20,55,17.90
2012,07,05,20,56,17.90
2012,07,05,20,57,17.90
2012,07,05,20,58,17.80
2012,07,05,20,59,17.80
2012,07,05,21,00,17.80
2012,07,05,21,01,17.70
2012,07,05,21,02,17.70
2012,07,05,21,03,17.60
2012,07,05,21,04,17.60
2012,07,05,21,05,17.60
2012,07,05,21,06,17.50
2012,07,05,21,07,17.50
2012,07,05,21,08,17.50
2012,07,05,21,09,17.40
2012,07,05,21,10,17.40
2012,07,05,21,11,17.40
2012,07,05,21,12,17.30
2012,07,05,21,13,17.30
2012,07,05,21,14,17.30
2012,07,05,21,15,17.20
2012,07,05,21,16,17.20
2012,07,05,21,17,17.20
2012,07,05,21,18,17.10
2012,07,05,21,19,17.10
2012,07,05,21,20,17.00
2012,07,05,21,21,17.00
2012,07,05,21,22,16.90
2012,07,05,21,23,16.90
2012,07,05,21,24,16.80
2012,07,05,21,25,16.80
2012,07,05,21,26,16.70
2012,07,05,21,27,16.70
2012,07,05,21,28,16.70
2012,07,05,21,29,16.60
2012,07,05,21,30,16.60
2012,07,05,21,31,16.60
2012,07,05,21,32,16.50
2012,07,05,21,33,16.50
2012,07,05,21,34,16.40
2012,07,05,21,35,16.40
2012,07,05,21,36,16.30
2012,07,05,21,37,16.30
2012,07,05,21,38,16.20
2012,07,05,21,39,16.20
2012,07,05,21,40,16.20
2012,07,05,21,41,16.10
2012,07,05,21,42,16.10
2012,07,05,21,43,16.10
2012,07,05,21,44,16.10
2012,07,05,21,45,16.00
2012,07,05,21,46,16.00
2012,07,05,21,47,15.90
2012,07,05,21,48,15.90
2012,07,05,21,49,15.90
2012,07,05,21,50,15.80
2012,07,05,21,51,15.80
2012,07,05,21,52,15.80
2012,07,05,21,53,15.80
2012,07,05,21,54,15.80
2012,07,05,21,55,15.80
2012,07,05,21,56,15.70
2012,07,05,21,57,15.70
2012,07,05,21,58,15.70
2012,07,05,21,59,15.70
2012,07,05,22,00,15.70
2012,07,05,22,01,15.70
2012,07,05,22,02,15.60
2012,07,05,22,03,15.60
2012,07,05,22,04,15.60
2012,07,05,22,05,15.60
2012,07,05,22,06,15.60
2012,07,05,22,07,15.60
2012,07,05,22,08,15.60
2012,07,05,22,09,15.60
2012,07,05,22,10,15.60
2012,07,05,22,11,15.50
2012,07,05,22,12,15.50
2012,07,05,22,13,15.50
2012,07,05,22,14,15.40
2012,07,05,22,15,15.40
2012,07,05,22,16,15.40
2012,07,05,22,17,15.40
2012,07,05,22,18,15.40
2012,07,05,22,19,15.40
2012,07,05,22,20,15.40
2012,07,05,22,21,15.40
2012,07,05,22,22,15.30
2012,07,05,22,23,15.30
2012,07,05,22,24,15.30
2012,07,05,22,25,15.30
2012,07,05,22,26,15.20
2012,07,05,22,27,15.20
2012,07,05,22,28,15.20
2012,07,05,22,29,15.20
2012,07,05,22,30,15.20
2012,07,05,22,31,15.10
2012,07,05,22,32,15.10
2012,07,05,22,33,15.10
2012,07,05,22,34,15.00
2012,07,05,22,35,15.00
2012,07,05,22,36,14.90
2012,07,05,22,37,14.90
2012,07,05,22,38,14.80
2012,07,05,22,39,14.80
2012,07,05,22,40,14.70
2012,07,05,22,41,14.70
2012,07,05,22,42,14.60
2012,07,05,22,43,14.60
2012,07,05,22,44,14.60
2012,07,05,22,45,14.60
2012,07,05,22,46,14.60
2012,07,05,22,47,14.60
2012,07,05,22,48,14.60
2012,07,05,22,49,14.60
2012,07,05,22,50,14.60
2012,07,05,22,51,14.60
2012,07,05,22,52,14.60
2012,07,05,22,53,14.60
2012,07,05,22,54,14.60
2012,07,05,22,55,14.60
